Regional Weather Roundup
Issued by NWS Grand Forks, ND

Home | Current Version | Previous Version | Graphics & Text | Print | Product List | Glossary On
Versions: 1 2 3 4 5 6 7 8 9 10 11 12 13 14 15 16 17 18 19 20 21 22 23 24 25 26 27 28 29 30 31 32 33 34 35 36 37 38 39 40 41 42 43 44 45 46 47 48 49 50
000
ASUS43 KFGF 252210
RWRFGF
PRAIRIE TO PINES  WEATHER ROUNDUP
NATIONAL WEATHER SERVICE EASTERN NORTH DAKOTA/GRAND FORKS ND
500 PM CDT MON JUL 25 2016

 **SATELLITE DATA USED TO AUGMENT SKY COVER AT AUTOMATED STATIONS**
 *****  WEATHER ACROSS EASTERN NORTH DAKOTA  *****

CITY           SKY/WX    TMP DP  RH WIND       PRES   REMARKS
GRAND FORKS    MOSUNNY   88  67  49 S8        29.92F HX  91
GRAND FRKS AFB SUNNY     87  68  52 S6        29.93F HX  90
GRAND FRKS NWS   N/A     88 N/A N/A SE13        N/A
DEVILS LAKE    SUNNY     86  70  58 NE8       29.93F HX  90
FARGO          SUNNY     90  59  35 S16       29.94F
WAHPETON ARPT  CLEAR     88  54  31 S14       29.97F
$$

 ***** WEATHER ACROSS CENTRAL AND WESTERN NORTH DAKOTA  *****

CITY           SKY/WX    TMP DP  RH WIND       PRES   REMARKS
BISMARCK       SUNNY     93  62  35 W6        29.93S HX  93
MINOT          SUNNY     90  63  40 NE6       29.94S HX  91
JAMESTOWN      SUNNY     89  64  43 S12       29.93F HX  90
MINOT AFB      SUNNY     87  63  44 NE8       29.93S
GARRISON         N/A     88  63  43 VRB3      29.94F
WILLISTON      SUNNY     92  54  27 N12       29.96F HX  90
DICKINSON      SUNNY     92  45  19 VRB3      29.95F
HETTINGER      SUNNY     99  47  17 VRB3      29.96S HX  95
$$

 *****  OTHER AIRPORT OBSERVATIONS IN OUR AREA  *****

CITY           SKY/WX    TMP DP  RH WIND       PRES   REMARKS
WALHALLA       NOT AVBL
GRAFTON AIRPOR FAIR      86  64  48 SW5       29.95F
VALLEY CITY AR FAIR      88  64  45 S12G22    29.97S
CANDO          NOT AVBL
CAVALIER APRT  FAIR      84  64  51 CALM      29.94F
GWINNER        FAIR      90  63  40 S16G23    29.96F HX  90
SHEYENNE NWR     N/A     91  59  33 SW13      29.95  HX  90
ROLLA            N/A     81  64  57 E5        29.99F
 ***** THE ABOVE OBSERVATIONS ARE NON NWS ARE NOT QUALITY
       CONTROLLED AND MAY MIS-REPORT RAIN FOR SNOW...
$$

  *****  WEATHER ACROSS NORTHERN MINNESOTA  *****

CITY           SKY/WX    TMP DP  RH WIND       PRES   REMARKS
FLAG ISLAND    SUNNY     81  57  44 W13       29.93S
WARROAD        SUNNY     81  66  61 SW9       29.96S
ROSEAU         SUNNY     82  68  61 W5        29.96S
HALLOCK        SUNNY     82  64  54 SW5       29.94F
THF RVR FALLS  SUNNY     83  65  54 SW5       29.98F
BAUDETTE       SUNNY     82  59  45 NW10      29.96S
WASKISH        SUNNY     82  64  54 SW9       29.97F
CROOKSTON      SUNNY     86  64  48 SW7       29.95F
STEPHEN NDAWN    N/A     84  66  54 SW3         N/A
GREENBUSH NDAW   N/A     84  64  51 W6          N/A
$$
  *****  WEATHER ACROSS CENTRAL AND WEST MINNESOTA  *****

CITY           SKY/WX    TMP DP  RH WIND       PRES   REMARKS
FOSSTON        SUNNY     84  64  51 SW9       29.99F
BEMIDJI        SUNNY     84  59  42 W12       30.00F
PARK RAPIDS    SUNNY     85  61  44 SW10      30.01F
ELBOW LAKE     FAIR      85  70  60 SW9       30.02F
WADENA         SUNNY     82  64  54 SW9       30.02F
DETROIT LAKES  SUNNY     84  64  51 S8        30.01F
MOORHEAD       SUNNY     90  61  37 S10       29.96F
FERGUS FALLS   SUNNY     86  64  48 MISG      30.00F
MORRIS MN      SUNNY     88  63  42 S9        30.01F
STAPLES        SUNNY     84  59  42 W8        30.02F
$$
  *****  WEATHER ELSEWHERE ACROSS MINNESOTA  *****

CITY           SKY/WX    TMP DP  RH WIND       PRES   REMARKS
DULUTH         MOSUNNY   83  61  47 NW6       30.00F
INTRNTL FALLS  SUNNY     81  59  47 NW10      29.95F
ELY            MOSUNNY   81  57  44 W5        29.98F
CLOQUET        MOSUNNY   82  57  42 NW8       30.00F
WHEATON        NOT AVBL
BRAINERD       SUNNY     84  60  44 W10       30.02F
HIBBING        SUNNY     80  60  50 W8        29.99F
ALEXANDRIA     SUNNY     84  64  50 W9        30.05F
SAINT CLOUD    SUNNY     85  64  49 W10       30.03S
MINNEAPOLIS    MOSUNNY   87  62  43 NW10      30.03F
$$

  *****  WEATHER ACROSS SOUTH DAKOTA  *****

CITY           SKY/WX    TMP DP  RH WIND       PRES   REMARKS
SIOUX FALLS    SUNNY     84  62  47 S7        30.07F
BROOKINGS      SUNNY     84  65  52 S14       30.06F
WATERTOWN      SUNNY     87  60  40 S18       30.04F
HURON          SUNNY     90  55  30 S16G24    30.00F
SISSETON         N/A     89  59  36 SW15G22   29.98F
ABERDEEN       SUNNY     93  55  27 S14G23    29.97F HX  91
MITCHELL       SUNNY     90  56  31 S14G21    30.03F
PIERRE         SUNNY     97  45  16 S21       29.95F HX  93
MOBRIDGE       SUNNY    100  49  17 SW16G24   29.91S HX  97
RAPID CITY     CLOUDY    86  57  37 S10       30.01S
$$

  *****  SOME WEATHER IN NEARBY STATES *****

CITY           SKY/WX    TMP DP  RH WIND       PRES   REMARKS
GLASGOW MT     SUNNY     92  46  20 CALM      29.96F
GREAT FALLS MT SUNNY     89  41  18 VRB6G16   30.05F
CHEYENNE WY    SUNNY     88  46  23 S17G26    30.19F
SCOTTSBLUFF NE SUNNY     94  54  25 S13       30.05F HX  92
OMAHA NE       MOSUNNY   88  63  43 NE10      30.05F
DES MOINES IA  MOSUNNY   88  62  41 N12       30.03F
DAVENPORT IA   SUNNY     84  66  54 N8        30.02S
CHICAGO IL     PTSUNNY   87  64  46 E8        29.97S
EAU CLAIRE WI  MOSUNNY   84  60  44 NW6       30.01F
LA CROSSE WI   SUNNY     85  62  46 NW12      30.01F
$$

  *****  SOME NATIONAL WEATHER *****

CITY           SKY/WX    TMP DP  RH WIND       PRES   REMARKS
LA GUARDIA NY  TSTM      79  76  90 S5        29.86R FOG
RALEIGH NC     CLOUDY    88  73  61 NW6       29.95S HX  95
ATLANTA GA     MOSUNNY   95  65  37 SW8       29.98F HX  97
NEW ORLEANS LA PTSUNNY   89  78  70 SE7       29.91S HX 103
OKLAHOMA CITY  PTSUNNY   93  70  46 CALM      29.93F HX  99
ALBUQUERQUE NM CLOUDY    93  44  18 W10       30.13F
SALT LAKE CITY MOSUNNY  101  37  11 NW15      30.01F HX  95
LOS ANGELES CA MOSUNNY   80  65  59 W13       29.90F
BOISE ID       SUNNY     97  37  12 NW7       29.96F HX  92
SEATTLE WA     MOSUNNY   84  61  45 W10       30.07S
$$

*** WEATHER ACROSS MANITOBA...SASKATCHEWAN AND ONTARIO ***
                ***ONTARIO***

CITY           SKY/WX    TMP DP  RH WIND       PRES   REMARKS
GERALDTON      PTSUNNY   75  57  53 W13G18    29.83S
THUNDER BAY    MOSUNNY   82  54  36 NW14G22   29.89S
SIOUX LOOKOUT  MOSUNNY   79  57  47 W13G20    29.90F
TORONTO        MOSUNNY   88  61  40 NW18G26   29.82S
BIG TROUT LK   SUNNY     77  59  53 W7        29.70F
PICKLE LAKE    PTSUNNY   79  55  44 W12G20    29.82F
DRYDEN         MOSUNNY   81  57  44 W15       29.92S
KENORA         MOSUNNY   81  55  41 W9        29.94S
$$
                *** MANITOBA***

CITY           SKY/WX    TMP DP  RH WIND       PRES   REMARKS
BRANDON        MOSUNNY   82  59  44 W5        29.95F
DAUPHIN        SUNNY     82  64  54 W13G22    29.91S
ISLAND LAKE    MOSUNNY   72  55  56 NW13G21   29.74R THUNDER
PILOT MOUND      N/A    N/A N/A N/A W3          N/A
THE PAS        MOSUNNY   77  46  33 NW20G30   29.89R
THOMPSON       PTSUNNY   68  55  64 W20G30    29.74S
WINNIPEG       MOSUNNY   82  64  54 VRB2      29.93F
LYNN LAKE      MOSUNNY   63  52  67 MISG      29.80R
CHURCHILL      PTSUNNY   61  55  82 SE13      29.63S
GILLAM         CLOUDY    64  59  82 NW8       29.65S THUNDER
$$
                ***SASKATCHEWAN***

CITY           SKY/WX    TMP DP  RH WIND       PRES   REMARKS
ESTEVAN        MOSUNNY   86  63  45 VRB6      29.97F
KINDERSLEY     MOSUNNY   77  50  38 NW9       30.07S
LLOYDMINSTER   MOSUNNY   73  48  40 NW9       30.07S
PRINCE ALBERT  MOSUNNY   75  52  43 W12G18    29.99R
REGINA         MOSUNNY   82  59  44 NW8       29.99R
YORKTON        SUNNY     79  59  50 NW13G20   29.97S
N. BATTLEFORD  SUNNY     75  46  35 NW12G22   30.06S
LA RONGE       PTSUNNY   72  50  46 W16       29.95R
SASKATOON      MOSUNNY   79  45  29 NW14G20   30.04R
SWIFT CURRENT  MOSUNNY   77  61  57 N8        30.06R
$$
NOTE: THESE ARE AUTOMATED STATIONS WITH LIMITED QUALITY CONTROL
      "FAIR" INDICATES FEW OR NO CLOUDS BELOW 12,000 FEET WITH NO
      SIGNIFICANT WEATHER AND/OR OBSTRUCTIONS TO VISIBILITY.
      SKY/WX - SKY CONDITION AND SIGNIFICANT WEATHER.
      TMP - AIR TEMPERATURE.    DP   - DEWPOINT TEMPERATURE.
      RH  - RELATIVE HUMIDITY.  PRES - PRESSURE.
      HX  - HEAT INDEX.         WCI  - WIND CHILL INDEX.
$



USA.gov is the U.S. government's official web portal to all federal, state and local government web resources and services.